EW9353 Weather Reports


time (UTC)temp
C
wind
direction
speed
KPH
gust
KPH
rain 1hr
cm
rain 24hr
cm
rain mn
cm
humidity
%
barometer
mb
20181211183059 8 291 0.0 1.6 0.00 0.00 0.00 89 1024.7
20181211181610 8 291 0.0 0.0 0.00 0.00 0.00 89 1025.1
20181211180104 8 291 0.0 0.0 0.00 0.00 0.00 87 1025.2
20181211174603 8 291 0.0 1.6 0.00 0.00 0.00 85 1025.3
20181211173115 8 291 0.0 4.8 0.00 0.00 0.00 82 1025.3
20181211171631 10 291 1.6 4.8 0.00 0.00 0.00 79 1025.0
20181211170101 11 301 0.0 3.2 0.00 0.00 0.00 75 1024.6
20181211164607 12 301 0.0 0.0 0.00 0.00 0.00 73 1024.3
20181211163041 13 301 0.0 8.0 0.00 0.00 0.00 72 1023.9
20181211161608 13 296 3.2 4.8 0.00 0.00 0.00 69 1023.6
20181211160047 13 296 0.0 1.6 0.00 0.00 0.00 69 1023.3
20181211154558 13 296 0.0 3.2 0.00 0.00 0.00 68 1023.5
20181211153047 13 296 0.0 1.6 0.00 0.00 0.00 67 1023.5
20181211151612 13 296 0.0 4.8 0.00 0.00 0.00 66 1023.6
20181211150106 13 296 0.0 1.6 0.00 0.00 0.00 63 1023.6
20181211144616 13 296 1.6 6.4 0.00 0.00 0.00 63 1023.5
20181211143049 13 296 1.6 6.4 0.00 0.00 0.00 63 1023.6
20181211141550 13 296 1.6 4.8 0.00 0.00 0.00 64 1023.6
20181211140102 13 294 0.0 3.2 0.00 0.00 0.00 65 1023.7
20181211134618 13 294 3.2 6.4 0.00 0.00 0.00 67 1024.0
20181211133127 13 282 3.2 8.0 0.00 0.00 0.00 67 1023.8
20181211131608 13 270 1.6 4.8 0.00 0.00 0.00 62 1023.6
20181211130042 13 270 1.6 4.8 0.00 0.00 0.00 64 1023.9
20181211124557 13 273 3.2 12.9 0.00 0.00 0.00 65 1024.3
20181211123103 13 255 9.7 16.1 0.00 0.00 0.00 66 1024.6
20181211121617 13 238 4.8 9.7 0.00 0.00 0.00 67 1024.6
20181211120115 13 80 0.0 6.4 0.00 0.00 0.00 70 1024.9
20181211114522 13 74 0.0 4.8 0.00 0.00 0.00 70 1025.0
20181211113018 12 74 0.0 1.6 0.00 0.00 0.00 75 1025.1
20181211111514 11 74 0.0 3.2 0.00 0.00 0.00 74 1025.0
20181211110005 11 74 1.6 4.8 0.00 0.00 0.00 78 1025.0
20181211104536 10 74 0.0 3.2 0.00 0.00 0.00 81 1025.3
20181211103030 8 74 1.6 4.8 0.00 0.00 0.00 83 1025.4
20181211101519 8 74 1.6 8.0 0.00 0.00 0.00 84 1025.5
20181211100006 7 72 1.6 8.0 0.00 0.00 0.00 84 1025.2
20181211094503 7 78 4.8 6.4 0.00 0.00 0.00 83 1024.6
20181211093139 7 78 0.0 8.0 0.00 0.00 0.00 85 1024.4
20181211091716 6 78 3.2 8.0 0.00 0.00 0.00 86 1024.3
20181211090149 6 90 3.2 9.7 0.00 0.00 0.00 86 1024.2
20181211084627 6 85 3.2 8.0 0.00 0.00 0.00 88 1024.2
20181211083141 5 71 4.8 6.4 0.00 0.00 0.00 89 1024.2
20181211081659 5 74 3.2 8.0 0.00 0.00 0.00 91 1024.2
20181211080100 5 101 0.0 3.2 0.00 0.00 0.00 90 1024.2
20181211074644 4 101 0.0 0.0 0.00 0.00 0.00 90 1023.9
20181211073131 4 101 0.0 0.0 0.00 0.00 0.00 88 1023.8
20181211071559 5 101 0.0 3.2 0.00 0.00 0.00 85 1023.8
20181211070206 5 101 1.6 4.8 0.00 0.00 0.00 88 1023.6
20181211064630 5 101 3.2 4.8 0.00 0.00 0.00 87 1023.5
20181211063134 6 102 3.2 9.7 0.00 0.00 0.00 89 1023.3
20181211061608 5 99 1.6 3.2 0.00 0.00 0.00 89 1023.2
20181211060043 6 99 3.2 8.0 0.00 0.00 0.00 88 1023.2
20181211054625 6 99 4.8 8.0 0.00 0.00 0.00 89 1023.1
20181211053109 6 76 1.6 6.4 0.00 0.00 0.00 89 1023.1
20181211051611 6 74 1.6 6.4 0.00 0.00 0.00 88 1023.1
20181211050107 6 70 1.6 4.8 0.00 0.00 0.00 87 1023.3
20181211044547 6 70 1.6 4.8 0.00 0.00 0.00 86 1023.4
20181211043040 6 70 1.6 9.7 0.00 0.00 0.00 87 1023.4
20181211041550 6 79 0.0 4.8 0.00 0.00 0.00 85 1023.5
20181211040029 6 80 3.2 4.8 0.00 0.00 0.00 85 1023.5
20181211034606 6 90 0.0 4.8 0.00 0.00 0.00 85 1023.5
20181211033031 6 90 1.6 4.8 0.00 0.00 0.00 83 1023.7
20181211031524 6 90 1.6 4.8 0.00 0.00 0.00 85 1023.9
20181211030025 6 74 3.2 9.7 0.00 0.00 0.00 85 1023.9
20181211024536 6 96 3.2 8.0 0.00 0.00 0.00 85 1024.0
20181211023025 6 88 4.8 8.0 0.00 0.00 0.00 85 1024.3
20181211021519 6 88 4.8 8.0 0.00 0.00 0.00 84 1024.6
20181211020017 6 95 4.8 8.0 0.00 0.00 0.00 82 1024.6
20181211014514 7 94 0.0 4.8 0.00 0.00 0.00 83 1024.7
20181211013014 7 94 0.0 8.0 0.00 0.00 0.00 84 1024.6
20181211011507 7 94 3.2 8.0 0.00 0.00 0.00 84 1024.7
20181211010007 6 94 3.2 8.0 0.00 0.00 0.00 85 1024.9
20181211004504 7 93 3.2 4.8 0.00 0.00 0.00 84 1025.2
20181210233200 6 90 3.2 8.0 0.00 0.00 0.00 87 1025.7
20181210231631 6 90 3.2 4.8 0.00 0.00 0.00 85 1025.8
20181210230140 6 90 1.6 4.8 0.00 0.00 0.00 86 1025.9
20181210224708 6 90 1.6 4.8 0.00 0.00 0.00 87 1025.9
20181210223137 7 90 1.6 4.8 0.00 0.00 0.00 87 1025.9
20181210221714 6 90 1.6 8.0 0.00 0.00 0.00 88 1026.1
20181210220248 6 88 3.2 8.0 0.00 0.00 0.00 88 1026.1
20181210214613 6 88 3.2 8.0 0.00 0.00 0.00 88 1026.2
20181210213116 6 88 3.2 4.8 0.00 0.00 0.00 88 1026.3
20181210211707 6 88 3.2 4.8 0.00 0.00 0.00 89 1026.4
20181210210149 6 88 1.6 8.0 0.00 0.00 0.00 88 1026.5
20181210204611 6 88 3.2 4.8 0.00 0.00 0.00 88 1026.5
20181210203111 6 88 3.2 4.8 0.00 0.00 0.00 89 1026.6
20181210201643 6 87 3.2 4.8 0.00 0.00 0.00 85 1026.7
20181210200110 7 87 1.6 4.8 0.00 0.00 0.00 87 1026.7
20181210194621 7 87 0.0 4.8 0.00 0.00 0.00 86 1026.8
20181210193117 7 79 3.2 8.0 0.00 0.00 0.00 86 1026.9
20181210191640 8 67 3.2 8.0 0.00 0.00 0.00 86 1026.9
20181210190137 8 58 3.2 8.0 0.00 0.00 0.00 87 1026.8
20181210184655 8 101 1.6 8.0 0.00 0.00 0.00 86 1026.9